Theta_e
326 327 327 328 331 334 333 333 335 335 334 332 337 345 347 350 349 349 348 346 345 346 346 347 347 348 349 349 348 344 342 342
326 326 326 328 329 332 331 332 333 332 332 335 341 344 346 347 349 349 348 347 346 346 345 347 349 349 350 349 347 349 349 346
326 327 328 328 329 329 329 330 331 332 332 332 337 341 344 344 346 348 350 349 347 346 346 347 349 350 350 350 351 352 351 351
327 327 327 328 328 329 330 331 331 330 333 333 333 340 341 343 345 347 349 351 350 349 348 348 348 349 349 351 350 349 351 351
330 327 327 327 328 330 329 329 332 332 332 335 340 342 342 342 345 349 349 351 352 351 351 351 350 351 350 350 351 350 351 350
331 330 329 329 329 329 329 330 330 330 330 334 337 343 342 343 344 346 350 351 351 352 352 352 351 351 352 351 351 351 350 351
330 330 329 329 329 329 330 330 332 332 332 332 332 335 340 343 346 346 348 349 351 352 352 351 351 351 351 351 351 351 348 349
331 328 328 329 329 328 329 329 330 330 331 331 335 337 341 344 345 346 347 348 348 349 348 343 342 342 347 349 350 349 349 347
331 328 328 330 329 329 329 329 329 329 330 334 338 343 343 343 344 345 347 347 348 347 346 345 341 341 341 342 342 342 344 346
331 330 332 330 329 329 328 329 329 329 331 335 336 339 339 338 339 342 343 346 347 345 344 341 340 340 338 339 337 335 335 336
334 332 331 329 329 329 329 329 330 330 331 333 336 335 338 337 337 339 341 343 343 343 342 339 339 336 333 333 336 334 336 334
331 332 333 331 329 328 328 331 330 330 331 332 334 332 337 336 338 339 340 341 340 339 339 337 335 333 334 335 334 338 334 331
332 332 330 329 330 328 330 330 327 329 330 331 333 336 339 338 338 339 340 340 339 338 337 334 332 332 336 335 338 331 331 332
330 331 330 327 330 330 330 329 328 328 330 334 336 340 338 338 338 338 338 337 335 336 335 334 332 334 334 339 331 332 331 332
329 330 333 328 329 328 330 330 332 333 334 335 338 337 338 337 337 335 334 335 335 334 334 333 334 334 337 335 335 333 330 330
330 330 332 329 333 332 332 333 334 333 335 335 337 337 336 336 335 334 334 334 333 332 330 330 332 334 338 333 336 330 329 329
330 333 331 330 332 333 334 335 335 336 336 336 335 335 336 335 334 333 331 329 329 329 330 331 331 333 333 330 332 331 330 330
328 334 334 332 332 335 335 335 335 335 335 334 335 335 335 334 333 332 330 330 330 330 330 331 331 333 331 331 332 331 330 330
331 333 335 335 333 335 335 335 334 334 334 335 335 334 334 333 332 330 331 331 331 331 331 331 332 333 331 331 332 329 330 329
Wind_Speed
9 12 12 16 16 16 14 2 8 5 7 6 6 6 4 1 1 6 12 20 22 22 22 22 24 23 23 23 22 26 26 25
12 8 8 10 18 10 9 13 11 8 8 5 9 8 5 5 4 6 7 13 17 19 21 20 21 21 22 22 24 22 23 25
9 14 15 9 9 10 10 5 11 12 10 13 7 8 8 8 5 6 6 8 14 16 18 19 18 18 19 21 23 22 21 21
19 5 9 13 19 17 11 14 11 11 4 5 7 11 10 9 5 5 6 8 9 13 15 16 17 17 18 19 18 23 21 21
9 8 7 15 15 11 13 12 8 9 7 8 8 10 11 11 7 6 7 8 8 9 10 11 11 12 14 15 17 17 19 21
11 13 15 17 15 15 13 10 11 13 14 13 11 13 13 11 8 7 8 9 8 7 6 7 8 9 10 11 13 15 17 17
18 9 8 16 16 14 16 15 12 5 14 9 11 15 16 14 11 9 9 9 8 7 6 5 5 5 5 7 10 13 15 18
14 12 13 12 10 13 15 15 10 14 11 6 1 9 13 14 14 12 10 9 8 8 6 6 7 8 5 5 5 7 10 14
15 12 11 13 14 14 15 13 13 14 13 8 8 11 15 14 10 9 9 10 9 8 7 6 7 7 7 8 8 8 9 12
8 9 15 4 2 9 14 14 13 11 4 5 6 7 7 5 7 7 7 8 9 7 7 6 6 7 7 6 7 8 9 11
7 14 7 8 6 8 10 11 11 11 8 10 8 7 5 4 5 6 7 8 8 8 8 7 7 9 8 7 5 5 7 11
10 17 19 9 8 7 6 10 10 14 11 11 9 8 6 9 7 7 7 8 9 8 8 7 10 9 8 5 2 5 11 16
11 12 8 5 11 12 11 3 8 17 14 10 9 2 10 8 7 6 6 7 8 8 8 10 10 10 8 2 3 9 12 18
12 14 9 15 14 12 4 6 7 7 9 11 8 6 5 4 5 6 6 7 7 7 6 8 11 9 7 2 3 8 12 18
9 8 5 24 8 18 5 11 9 10 10 11 9 7 6 6 6 7 7 8 7 7 6 6 10 10 6 3 4 5 10 17
4 7 8 19 5 11 9 10 10 9 10 9 8 7 6 6 6 6 6 7 7 7 7 9 10 12 8 5 5 5 14 21
7 2 7 18 12 13 12 11 10 9 9 8 7 7 8 8 6 6 5 6 8 8 8 9 11 15 11 12 9 7 12 13
9 3 1 13 20 15 15 13 12 12 9 7 9 11 11 9 8 7 4 5 6 8 9 11 14 17 15 14 8 6 9 11
1 3 2 6 20 15 14 13 12 10 9 12 13 12 10 10 9 8 6 5 7 8 10 12 16 18 14 14 8 4 7 7
Wind_Direction
205 206 231 192 232 247 281 212 286 205 209 223 202 222 212 155 42 173 193 198 200 203 207 205 206 207 211 210 218 220 221 226
179 192 207 257 214 208 232 261 236 229 223 277 174 185 173 169 145 122 159 186 196 201 203 210 210 211 212 215 220 217 216 224
173 210 195 191 203 233 275 265 261 249 228 215 186 178 172 136 120 118 147 177 195 201 204 210 216 217 220 222 216 219 219 218
206 172 264 245 215 209 224 210 238 282 307 96 219 168 171 144 133 112 130 165 180 193 202 209 217 223 225 224 228 219 223 221
213 189 208 226 228 238 233 258 230 240 209 131 168 180 185 166 154 131 121 139 155 169 183 193 208 218 222 224 225 225 224 225
226 218 185 205 204 218 230 219 225 219 262 162 183 204 187 178 169 158 136 132 142 154 165 178 191 204 214 218 220 222 224 228
245 275 201 200 194 209 227 251 260 241 219 254 201 207 195 183 169 164 157 148 144 147 151 156 167 183 203 213 223 230 236 234
236 231 229 219 218 211 230 248 247 254 249 263 220 221 192 190 181 174 170 160 153 153 159 184 200 205 203 205 210 229 247 250
221 201 204 223 209 219 227 229 245 244 246 151 190 191 195 193 186 177 180 180 176 177 175 185 217 214 221 237 251 256 244 247
215 183 217 205 133 247 247 248 238 254 259 203 189 166 168 174 183 187 190 185 181 183 180 198 207 212 213 214 236 251 267 269
181 211 213 191 193 203 219 236 219 229 179 160 153 160 126 160 172 186 190 184 182 181 183 201 204 220 218 222 241 262 279 285
216 222 227 246 150 188 200 247 191 216 197 178 185 222 133 138 147 156 161 174 177 182 186 195 216 216 212 213 246 311 297 297
228 224 227 102 148 162 201 100 172 201 215 204 219 350 122 126 136 165 176 179 180 191 215 226 218 211 204 197 290 317 325 331
236 218 209 151 154 194 201 127 151 188 187 190 184 153 142 153 172 184 193 196 199 208 217 230 201 193 185 179 343 1 359 359
230 206 123 173 157 194 212 168 168 174 177 185 190 196 199 208 214 222 223 217 210 208 203 217 193 174 156 162 84 18 16 14
259 186 152 184 179 170 182 177 164 176 181 192 199 196 199 203 207 215 205 212 220 216 221 220 196 169 160 136 104 60 50 38
227 151 136 190 190 180 170 161 158 158 170 182 187 185 173 167 179 187 195 218 217 210 199 192 190 172 168 137 117 87 66 45
230 81 350 208 195 179 171 168 172 164 164 171 172 158 148 142 148 148 159 160 172 175 173 181 184 180 174 144 129 81 86 72
134 73 223 202 179 174 165 170 178 169 171 161 158 154 146 143 147 146 132 136 163 169 168 177 178 175 170 160 164 98 104 84